[[{"header":{"parameterUnit":"m.s-1","parameterCategory":1,"la1":30.2991,"la2":30.254,"lo1":-89.0895,"lo2":-89.0444,"dy":0.0017,"dx":0.0017,"nx":28,"ny":28,"refTime":"2023-08-05T21:00:00:Z","depth":0,"parameterNumber":2,"parameterNumberName":"U-component_of_WINDS"},"data":[0,0,0,0,0,0,0,0,0,0,0,0,0,0,0,0,0,0,0,0,0,0,0,0,0,0,0,0,0,0,0,0,0,0,0,0,0,0,0,0,0,0,0,0,0,0,0,0,0,0,0,0,0,0,0,0,0,0,1.9753,1.9754,0,1.9896,1.9898,1.9899,1.9943,1.9942,1.9942,1.9941,2.0088,2.0093,2.0097,0,0,0,0,0,0,0,0,0,0,0,0,0,1.9517,1.9521,1.9753,1.9754,1.9756,1.9896,1.9898,1.99,1.9943,1.9942,1.9942,1.9941,2.0087,2.0092,2.0098,0,0,0,0,0,0,0,0,0,0,0,0,0,1.9636,1.9522,1.9752,1.9795,1.98,1.9896,1.9898,1.99,1.9943,1.9942,1.9941,1.994,2.0085,2.0092,2.0098,2.0162,0,0,2.0119,2.0122,0,0,0,0,0,0,0,0,1.9629,1.9644,1.9787,1.9792,1.9798,1.9901,1.9869,1.9988,1.9944,1.9889,1.9941,1.994,2.0027,2.0038,2.0068,2.0169,2.0175,2.012,2.0124,2.0127,2.0129,0,0,0,0,0,0,0,1.962,1.9638,1.9809,1.9789,1.9796,1.9807,1.9822,1.9892,1.9962,1.9894,1.9897,1.9914,2.003,2.0061,2.0071,2.0177,2.012,2.0126,2.013,2.0133,2.0338,2.0339,0,0,0,0,0,0,1.9605,1.9631,1.9805,1.9814,1.9709,1.9812,1.9829,1.9869,1.9961,1.9975,1.9914,1.9915,2.005,2.0063,2.0077,2.0157,2.0127,2.0133,2.0137,2.0337,2.0338,2.034,0,0,0,0,0,0,1.96,1.962,1.9799,1.9724,1.9747,1.9817,1.9861,1.9872,1.9903,1.9977,1.999,1.9933,2.0049,2.0067,2.014,2.0162,2.0137,2.0143,2.0335,2.0337,2.0339,2.0317,0,0,0,0,0,0,1.9593,1.9618,1.9643,1.9724,1.9751,1.986,1.9862,1.9876,1.9915,1.9917,1.9998,2.0011,2.005,2.013,2.0147,2.0171,2.0148,2.0334,2.0336,2.0339,2.0316,2.0318,2.032,0,0,0,0,0,1.9584,1.9631,1.9644,1.9664,1.9783,1.9861,1.9877,1.9921,1.9917,1.9942,1.999,2.0008,2.0158,2.0137,2.0157,2.0183,2.0332,2.0335,2.0338,2.0316,2.0318,2.032,0,0,0,0,0,0,1.955,1.9642,1.9657,1.9732,1.9788,1.9868,1.9902,1.9922,1.9981,1.9981,2.0034,2.0052,2.0121,2.016,2.0136,2.025,2.0246,2.0253,2.0221,2.0224,2.0226,2.0215,2.0154,0,0,0,0,0,1.9551,1.9607,1.9685,1.9743,1.977,1.9831,1.9867,1.9896,1.9957,1.9981,2.0034,2.0092,2.0153,2.0191,2.0251,2.0323,2.0341,2.0351,2.0353,2.0354,2.0359,2.04,2.0405,2.035,2.035,2.035,0,0,1.9554,1.9611,1.9643,1.9737,1.9785,1.9841,1.9851,1.991,1.9952,1.999,2.0062,2.0103,2.0172,2.0245,2.028,2.0279,2.0378,2.0358,2.0358,2.0363,2.0403,2.0408,2.0413,2.0352,2.0351,2.0351,0,0,1.9588,1.9637,1.9691,1.9738,1.981,1.985,1.9863,1.9941,1.9969,2.0042,2.0072,2.0123,2.0226,2.0273,2.0311,2.0364,2.0383,2.0382,2.0391,2.043,2.0434,2.0438,2.0456,2.0462,2.0387,2.0387,2.0387,0,1.9582,1.9668,1.9715,1.9773,1.9813,1.9851,1.9905,1.9949,2.0036,2.0063,2.0062,2.0192,2.0241,2.0325,2.0338,2.0368,2.0383,2.0372,2.043,2.0434,2.0439,2.0456,2.0463,2.0386,2.0386,2.0386,2.0387,0,1.9657,1.9716,1.9751,1.9834,1.9879,1.9935,1.999,2.003,2.0056,2.0096,2.017,2.0231,2.0303,2.0326,2.0351,2.0414,2.0411,2.0419,2.0416,2.0442,2.046,2.0467,2.0385,2.0386,2.0386,2.0386,0,0,1.9671,1.9781,1.9793,1.9831,1.9914,1.996,2.0018,2.0089,2.0121,2.0181,2.023,2.0316,2.0324,2.0367,2.0399,2.0433,2.047,2.0437,2.044,2.044,2.0541,2.0533,2.054,2.0484,2.0485,2.0486,2.0535,0,1.9714,1.9819,1.9863,1.9947,2.0002,2.0039,2.0089,2.0145,2.0185,2.0238,2.0282,2.0342,2.0348,2.0374,2.041,2.0458,2.0491,2.0455,2.0529,2.0531,2.0509,2.055,2.0542,2.0585,2.0542,2.0543,2.0544,0,1.9778,1.9838,1.9927,2.0003,2.0028,2.0072,2.014,2.019,2.0255,2.0281,2.0329,2.0359,2.0421,2.0415,2.0501,2.0476,2.0509,2.0537,2.054,2.0547,2.0538,2.0557,2.06,2.0605,2.0556,2.0555,2.0554,0,1.9778,1.9881,1.9947,1.9979,2.007,2.01,2.0139,2.0203,2.0242,2.0302,2.0328,2.0395,2.0431,2.0482,2.0529,2.052,2.061,2.0608,2.0634,2.0632,2.0649,2.0647,2.0697,2.0673,2.0673,2.0673,2.0673,0,1.982,1.9873,1.9949,1.9989,2.005,2.0101,2.0159,2.0201,2.0257,2.0307,2.0343,2.0389,2.045,2.0503,2.0541,2.0606,2.0622,2.0645,2.0654,2.0641,2.0638,2.0662,2.066,2.0675,2.0675,2.0674,2.0674,0,1.9829,1.9882,1.9957,2.0037,2.0059,2.0099,2.0168,2.0209,2.0251,2.0313,2.033,2.0396,2.0461,2.0514,2.0599,2.0624,2.0691,2.0703,2.0669,2.0674,2.0696,2.0692,2.0761,2.0773,2.0742,2.0743,2.0743,0,1.9852,1.9894,1.9978,2.0014,2.0053,2.011,2.0151,2.0203,2.0244,2.0321,2.0353,2.042,2.0477,2.0579,2.0634,2.0699,2.0711,2.0731,2.0721,2.0707,2.071,2.0706,2.0711,2.0731,2.0731,2.0731,2.0731,0,1.9886,1.9911,1.9968,2.0035,2.0082,2.0138,2.0193,2.0221,2.0284,2.0328,2.0395,2.0438,2.0525,2.0592,2.0663,2.0703,2.0728,2.0734,2.0744,2.073,2.0708,2.0719,2.067,2.0732,2.0732,2.0732,2.0732,2.0732,1.9902,1.9941,2.0006,2.0069,2.0117,2.0168,2.0211,2.0258,2.0315,2.0389,2.0417,2.0486,2.055,2.0648,2.0688,2.0743,2.0745,2.0758,2.0762,2.0764,2.0761,2.0701,2.0756,2.0756,2.0756,2.0756,2.0756,0,1.9937,1.9982,2.0039,2.0116,2.0166,2.0185,2.0248,2.0288,2.0348,2.0405,2.0461,2.0537,2.0602,2.0663,2.073,2.0762,2.0775,2.0778,2.0775,2.0784,2.0756,2.0741,2.0766,2.0766,2.0766,2.0766,2.0766,2.0766,1.9961,2.0027,2.0059,2.015,2.0194,2.0261,2.0295,2.0343,2.0389,2.0473,2.0527,2.0566,2.0625,2.0698,2.0758,2.0774,2.0797,2.0796,2.0815,2.0788,2.0786,2.0784,2.077,2.0801,2.0801,2.0839,2.0839,2.0839]},{"header":{"parameterUnit":"m.s-1","parameterCategory":1,"la1":30.2991,"la2":30.254,"lo1":-89.0895,"lo2":-89.0444,"dy":0.0017,"dx":0.0017,"nx":28,"ny":28,"refTime":"2023-08-05T21:00:00:Z","depth":0,"parameterNumber":3,"parameterNumberName":"V-component_of_WINDS"},"data":[0,0,0,0,0,0,0,0,0,0,0,0,0,0,0,0,0,0,0,0,0,0,0,0,0,0,0,0,0,0,0,0,0,0,0,0,0,0,0,0,0,0,0,0,0,0,0,0,0,0,0,0,0,0,0,0,0,0,5.5982,5.5983,0,5.6055,5.6055,5.6056,5.6032,5.603,5.6028,5.6027,5.6092,5.6095,5.6098,0,0,0,0,0,0,0,0,0,0,0,0,0,5.5812,5.5815,5.5982,5.5983,5.5984,5.6054,5.6055,5.6056,5.6032,5.603,5.6028,5.6026,5.6091,5.6094,5.6098,0,0,0,0,0,0,0,0,0,0,0,0,0,5.5885,5.5816,5.5982,5.598,5.5981,5.6054,5.6055,5.6057,5.6032,5.603,5.6028,5.6025,5.6089,5.6094,5.6099,5.6175,0,0,5.6113,5.6115,0,0,0,0,0,0,0,0,5.5881,5.5891,5.5979,5.598,5.5981,5.6032,5.6019,5.6096,5.6033,5.6012,5.6027,5.6024,5.6073,5.6079,5.6097,5.6178,5.6181,5.6114,5.6117,5.6119,5.612,0,0,0,0,0,0,0,5.5876,5.5888,5.601,5.5981,5.5982,5.5973,5.598,5.6034,5.6054,5.6014,5.6012,5.6022,5.6073,5.6093,5.6099,5.6182,5.6114,5.6118,5.6121,5.6123,5.6328,5.633,0,0,0,0,0,0,5.5872,5.5884,5.6008,5.6012,5.5925,5.5978,5.5986,5.6018,5.6054,5.6058,5.6024,5.6021,5.6086,5.6093,5.6101,5.6193,5.6119,5.6123,5.6126,5.6325,5.6328,5.6331,0,0,0,0,0,0,5.5868,5.5883,5.6005,5.5948,5.5963,5.5983,5.6018,5.602,5.6041,5.6062,5.6064,5.6041,5.6084,5.6094,5.6157,5.6195,5.6125,5.613,5.6322,5.6326,5.633,5.6377,0,0,0,0,0,0,5.5863,5.5882,5.5913,5.5949,5.5966,5.6063,5.6021,5.6024,5.605,5.6046,5.6078,5.6081,5.6083,5.615,5.6162,5.62,5.6133,5.6319,5.6324,5.6329,5.6372,5.6382,5.639,0,0,0,0,0,5.5857,5.5921,5.5915,5.593,5.6006,5.6066,5.6075,5.6079,5.6053,5.6083,5.6097,5.608,5.6189,5.6157,5.617,5.621,5.6317,5.6323,5.6328,5.6368,5.638,5.639,0,0,0,0,0,0,5.5886,5.5926,5.5919,5.5998,5.6029,5.6061,5.61,5.6091,5.6127,5.6122,5.6122,5.6129,5.6194,5.6208,5.6172,5.6285,5.6248,5.6257,5.6274,5.6286,5.6295,5.629,5.6137,0,0,0,0,0,5.5902,5.595,5.5981,5.6047,5.6063,5.6079,5.6105,5.6105,5.6136,5.6148,5.6166,5.6194,5.6234,5.6261,5.6299,5.6374,5.638,5.6407,5.6416,5.6424,5.6431,5.6471,5.6484,5.635,5.635,5.635,0,0,5.5934,5.5962,5.5992,5.6053,5.6078,5.6125,5.609,5.6141,5.6175,5.6155,5.6217,5.6231,5.6261,5.6331,5.6362,5.6344,5.6469,5.6431,5.6437,5.644,5.6478,5.6491,5.6502,5.6354,5.6354,5.6353,0,0,5.6017,5.6044,5.6102,5.6128,5.6166,5.6177,5.619,5.6225,5.6235,5.6297,5.6283,5.6322,5.6391,5.6414,5.6435,5.6527,5.6513,5.6539,5.6587,5.6626,5.6636,5.6646,5.6678,5.669,5.6547,5.6547,5.6547,0,5.6051,5.6125,5.6132,5.6185,5.6212,5.6199,5.6257,5.628,5.6327,5.6345,5.6325,5.6412,5.6432,5.6507,5.653,5.6547,5.6561,5.6536,5.6635,5.6644,5.6653,5.6684,5.6696,5.655,5.6549,5.6549,5.6549,0,5.6165,5.6216,5.6258,5.6309,5.634,5.6394,5.6406,5.6437,5.6434,5.6446,5.6509,5.6532,5.6575,5.6593,5.659,5.6667,5.6655,5.6635,5.6598,5.6669,5.6698,5.671,5.6554,5.6553,5.6552,5.6551,0,0,5.6267,5.6323,5.6338,5.6361,5.6403,5.644,5.6493,5.6539,5.6565,5.6597,5.664,5.67,5.6683,5.6706,5.6705,5.6739,5.6811,5.6715,5.6716,5.6732,5.6897,5.6911,5.6925,5.6802,5.6804,5.6806,5.6894,0,5.6354,5.6452,5.646,5.6546,5.6593,5.6582,5.6628,5.6656,5.6669,5.6707,5.6718,5.6761,5.6735,5.6749,5.6783,5.6795,5.6844,5.6789,5.684,5.6842,5.6833,5.6941,5.6956,5.7038,5.6905,5.6907,5.6909,0,5.6468,5.6509,5.6601,5.6638,5.6657,5.6699,5.6741,5.6779,5.6811,5.6817,5.6844,5.6838,5.689,5.6852,5.6922,5.6884,5.6905,5.6914,5.6918,5.6922,5.6879,5.6947,5.7064,5.7077,5.6927,5.6925,5.6924,0,5.6533,5.661,5.6676,5.6696,5.674,5.6769,5.6788,5.6818,5.6845,5.6881,5.6898,5.6937,5.6959,5.6989,5.6993,5.6965,5.7063,5.7025,5.7068,5.7068,5.7089,5.7087,5.721,5.7103,5.7102,5.7102,5.7102,0,5.6629,5.6686,5.6707,5.6747,5.6809,5.6816,5.6877,5.6893,5.692,5.6961,5.6952,5.699,5.6994,5.7032,5.7035,5.7093,5.7102,5.7107,5.7107,5.7108,5.7107,5.7121,5.7115,5.7106,5.7105,5.7104,5.7104,0,5.6712,5.6729,5.68,5.6836,5.6847,5.6891,5.6921,5.6958,5.697,5.7021,5.7034,5.7051,5.7095,5.7103,5.7154,5.7157,5.7225,5.7219,5.7216,5.7215,5.7257,5.7253,5.7393,5.7411,5.7292,5.7293,5.7294,0,5.6772,5.6816,5.6859,5.6888,5.691,5.6955,5.6984,5.6992,5.7021,5.7061,5.7093,5.7137,5.7173,5.7244,5.7259,5.7298,5.7293,5.734,5.7299,5.7298,5.7294,5.7291,5.7295,5.7347,5.7349,5.735,5.7351,0,5.6877,5.6883,5.6927,5.6974,5.7009,5.7045,5.7079,5.7102,5.7113,5.7146,5.7194,5.7222,5.7277,5.732,5.7359,5.7375,5.7364,5.7364,5.7375,5.7377,5.7373,5.7375,5.7237,5.736,5.7359,5.7358,5.7358,5.7358,5.695,5.6989,5.7026,5.7075,5.7102,5.7134,5.7171,5.7189,5.723,5.7278,5.7278,5.733,5.7359,5.7412,5.743,5.7469,5.7453,5.747,5.7475,5.7479,5.7483,5.7367,5.7476,5.7475,5.7475,5.7475,5.7475,0,5.7054,5.7078,5.7123,5.7173,5.7211,5.7201,5.7238,5.7269,5.7317,5.7347,5.7384,5.7438,5.748,5.7499,5.754,5.7567,5.7563,5.7578,5.7575,5.7579,5.7494,5.748,5.758,5.758,5.758,5.758,5.758,5.758,5.7113,5.7179,5.719,5.7268,5.729,5.7344,5.7366,5.7395,5.7419,5.7482,5.7518,5.7532,5.7557,5.76,5.7637,5.7642,5.7657,5.7674,5.7675,5.7596,5.7585,5.7575,5.7561,5.7677,5.7677,5.7757,5.7758,5.7758]}]]